Location: Herronton
(50.6333°N, 113.4167°W)
Time: 08:28:05
(UTC+00:00)

ISS - Visible Passes

Search period start: 30 November 2021 00:00
Search period end: 10 December 2021 00:00
Orbit: 417 x 423 km, 51.6° (Epoch: 30 November)

Date Brightness Start Highest point End Pass type
(mag) Time Alt. Az. Time Alt. Az. Time Alt. Az.
30 Nov -3.8 01:25:49 10° W 01:29:13 74° N 01:29:50 55° ENE visible
30 Nov -0.2 03:02:43 10° WNW 03:02:49 11° W 03:02:49 11° W visible
01 Dec -3.7 00:38:36 10° W 00:42:01 72° N 00:44:34 16° E visible
01 Dec -2.0 02:15:30 10° WNW 02:17:33 33° W 02:17:33 33° W visible
02 Dec -3.8 01:28:18 10° WNW 01:31:43 86° SSW 01:32:21 57° ESE visible
03 Dec -3.8 00:41:06 10° WNW 00:44:30 81° N 00:47:12 15° E visible
03 Dec -1.8 02:18:01 10° W 02:20:12 30° WSW 02:20:12 30° WSW visible
04 Dec -3.1 01:30:45 10° WNW 01:34:05 52° SSW 01:35:09 35° SSE visible
05 Dec -3.5 00:43:30 10° WNW 00:46:54 69° SSW 00:50:14 10° ESE visible
05 Dec -1.3 02:20:50 10° W 02:23:15 19° SW 02:23:15 19° SW visible
06 Dec -1.7 01:33:20 10° W 01:36:15 27° SW 01:38:32 14° SSE visible
07 Dec -2.2 00:45:57 10° W 00:49:07 37° SSW 00:52:17 10° SE visible
08 Dec -0.6 01:36:37 10° WSW 01:38:11 13° SW 01:39:45 10° SSW visible
09 Dec -0.8 00:48:42 10° W 00:51:08 19° SW 00:53:34 10° S visible
